Location: ??
(35.5052°N, 139.7262°E)
Time: 01:28:08
(UTC+00:00)

NOSS 3-1 (C) - Pass Details

Date: 20 June 2021
Orbit: 724 x 1485 km, 63.4° (Epoch: 20 July)

Event Time Altitude Azimuth Distance (km) Brightness Sun altitude
Exits shadow 14:50:03 45° 307° (NW) 1,105 3.9 -31.0°
Maximum altitude 14:50:05 45° 308° (NW) 1,105 3.9 -31.0°
Drops below altitude 10° 14:55:44 10° 20° (NNE) 2,609 6.6 -31.0°
Sets 14:58:37 0° 27° (NNE) 3,675 7.5 -30.9°
